Regional Weather Roundup
Issued by NWS

Home | Current Version | Previous Version | Text Only | Print | Product List | Glossary Off
Versions: 1 2 3 4 5 6 7 8 9 10 11 12 13 14 15 16 17 18 19 20 21 22 23 24 25 26 27 28 29 30 31 32 33 34 35 36 37 38 39 40 41 42 43 44 45 46 47 48 49 50

000
ASUS43 KFSD 222202
RWRSD

WEATHER ROUNDUP FOR SOUTH DAKOTA
NATIONAL WEATHER SERVICE SIOUX FALLS SD
500 PM CDT TUE MAY 22 2018

NOTE: "FAIR" INDICATES FEW OR NO CLOUDS BELOW 12,000 FEET WITH NO
SIGNIFICANT WEATHER AND/OR OBSTRUCTIONS TO VISIBILITY.


SDZ001>005-009-010-012>017-222300-
NORTHWEST AND NORTH CENTRAL SOUTH DAKOTA

CITY           SKY/WX    TMP DP  RH WIND       PRES   REMARKS
BUFFALO          N/A     81  51  35 NE5       29.86S
FAITH            N/A     77  62  59 SE12      29.92S
MOBRIDGE       SUNNY     85  58  39 S10       29.88
$$

SDZ012>016-024>037-041>051-057-063-072>074-222300-
SOUTHWEST AND SOUTH CENTRAL SOUTH DAKOTA

CITY           SKY/WX    TMP DP  RH WIND       PRES   REMARKS
RAPID CTY ARPT PTSUNNY   78  57  48 SE18      29.91F
PIERRE         PTSUNNY   82  63  52 SE15      29.88F
CUSTER         PTSUNNY   70  45  40 E14G22    30.03S
ELLSWORTH AFB  CLOUDY    79  57  46 E8        29.92S
PHILIP         PTSUNNY   82  58  43 E13       29.87F
PINE RIDGE     PTSUNNY   78  53  41 E9        29.88F
SPEARFISH      FAIR      66  59  77 SE14      29.98R
WINNER         FAIR      82  65  56 SE14G20   29.90F
$$

SDZ004>011-016>023-039-040-222300-
NORTHEAST SOUTH DAKOTA

CITY           SKY/WX    TMP DP  RH WIND       PRES   REMARKS
ABERDEEN       SUNNY     86  53  32 S9G20     29.91F
WATERTOWN      MOSUNNY   81  51  35 S7G16     29.96S
BROOKINGS      SUNNY     80  59  48 SE12      29.96F
SISSETON         N/A     82  54  37 VRB7      29.94S
$$

SDZ017-020-022-023-036>040-048>070-222300-
SOUTHEAST SOUTH DAKOTA

CITY           SKY/WX    TMP DP  RH WIND       PRES   REMARKS
SIOUX FALLS    PTSUNNY   77  63  61 SE14G23   29.94F
HURON          MOSUNNY   82  60  47 S12       29.91F
CHAMBERLAIN    MOSUNNY   83  65  56 SE14      29.90F
MITCHELL       MOSUNNY   81  66  60 SE14G25   29.91F
YANKTON        CLOUDY    78  67  68 SE16      29.92F
$$

ABBREVIATIONS USED IN REMARKS
   TC - TEMPERATURE IN CELSIUS
  WCI - WIND CHILL INDEX
   HX - HEAT INDEX
  VSB - VISIBILITY




USA.gov is the U.S. government's official web portal to all federal, state and local government web resources and services.